User: anonymous   Login
Location: Unspecified
(0.0000°N, 0.0000°E)
Time: 14:32:01
(UTC+00:00)
Language:

Himawari - Orbit

View from above orbital plane
View from above orbital plane
View from above satellite
View from above satellite

Ground track
Ground track

The orbit data is extracted from the following two-line orbital elements,

1 10143U 77065A   17084.24157272 -.00000122 +00000-0 +00000-0 0  9990
2 10143 013.5382 328.1830 0014989 155.5024 067.2336 00.99247627087762
Epoch (UTC): 25 March 2017 05:47:51
Eccentricity: 0.0014989
inclination: 13.5382°
perigee height: 36012 km
apogee height: 36139 km
right ascension of ascending node: 328.1830°
argument of perigee: 155.5024°
revolutions per day: 0.99247627
mean anomaly at epoch: 67.2336°
orbit number at epoch: 8776

The dashed part of the orbit path shows where the satellite is in the earth's shadow,  

DLR